LEMUR-2-JOHANLORAN (44084 NORAD) Tracking and Keplerian Element Data

This shows tracking and keplerian element data for the satellite.

Feedback or suggestion? Click here.




ElementValue
Catalog44084
NameLEMUR-2-JOHANLORAN
Epoch Orbit305
Epoch Day111.4644833
Epoch Year2019
RAAN171.844
Inclination97.4622
Eccentricity0.0013194
Argument of Perigee204.3549
Mean Anonmoly155.7065
Mean Motion15.21423997
Decay Rate1.97E-05
L11 44084U 19018G 19111.46448330 .00001970 00000-0 90737-4 0 9991
L22 44084 97.4622 171.8440 0013194 204.3549 155.7065 15.21423997 3052

Live tracking and technical data element details for LEMUR-2-JOHANLORAN (NORAD 44084). LEMUR-2-JOHANLORAN can be tracked NOW for your location showing map with azimuth and elevation plus other details from your city location.

Track the satellite on the map from your city or location and see movement details for azimuth, elevation, latitude, longitude, range, height, and movement on the map or in text.







IsCatalogInMostPopularTable: catalog: 44084, numindb: 2
Update: records affected: 1



GetName: 44084 LEMUR-2-JOHANLORAN

Hit Count: updated at: Tue, 23 Apr 2019 02:32:23 GMT